Year,Month,Day,Hour,Minute,Value (Times are PST for temperature in C)
2014,05,16,02,15,16.20
2014,05,16,02,16,16.20
2014,05,16,02,17,16.20
2014,05,16,02,18,16.10
2014,05,16,02,19,16.10
2014,05,16,02,20,16.10
2014,05,16,02,21,16.10
2014,05,16,02,22,16.00
2014,05,16,02,23,16.00
2014,05,16,02,24,16.00
2014,05,16,02,25,15.90
2014,05,16,02,26,15.90
2014,05,16,02,27,15.90
2014,05,16,02,28,15.90
2014,05,16,02,29,15.90
2014,05,16,02,30,15.90
2014,05,16,02,31,15.90
2014,05,16,02,32,15.90
2014,05,16,02,33,15.90
2014,05,16,02,34,15.80
2014,05,16,02,35,15.80
2014,05,16,02,36,15.80
2014,05,16,02,37,15.80
2014,05,16,02,38,15.80
2014,05,16,02,39,15.80
2014,05,16,02,40,15.80
2014,05,16,02,41,15.80
2014,05,16,02,42,15.80
2014,05,16,02,43,15.80
2014,05,16,02,44,15.80
2014,05,16,02,45,15.80
2014,05,16,02,46,15.80
2014,05,16,02,47,15.80
2014,05,16,02,48,15.70
2014,05,16,02,49,15.70
2014,05,16,02,50,15.70
2014,05,16,02,51,15.70
2014,05,16,02,52,15.70
2014,05,16,02,53,15.70
2014,05,16,02,54,15.70
2014,05,16,02,55,15.70
2014,05,16,02,56,15.70
2014,05,16,02,57,15.70
2014,05,16,02,58,15.60
2014,05,16,02,59,15.60
2014,05,16,03,00,15.60
2014,05,16,03,01,15.60
2014,05,16,03,02,15.60
2014,05,16,03,03,15.60
2014,05,16,03,04,15.50
2014,05,16,03,05,15.50
2014,05,16,03,06,15.50
2014,05,16,03,07,15.40
2014,05,16,03,08,15.40
2014,05,16,03,09,15.40
2014,05,16,03,10,15.40
2014,05,16,03,11,15.40
2014,05,16,03,12,15.40
2014,05,16,03,13,15.40
2014,05,16,03,14,15.40
2014,05,16,03,15,15.40
2014,05,16,03,16,15.40
2014,05,16,03,17,15.40
2014,05,16,03,18,15.40
2014,05,16,03,19,15.40
2014,05,16,03,20,15.40
2014,05,16,03,21,15.40
2014,05,16,03,22,15.30
2014,05,16,03,23,15.30
2014,05,16,03,24,15.40
2014,05,16,03,25,15.30
2014,05,16,03,26,15.30
2014,05,16,03,27,15.30
2014,05,16,03,28,15.30
2014,05,16,03,29,15.30
2014,05,16,03,30,15.30
2014,05,16,03,31,15.30
2014,05,16,03,32,15.30
2014,05,16,03,33,15.30
2014,05,16,03,34,15.30
2014,05,16,03,35,15.30
2014,05,16,03,36,15.30
2014,05,16,03,37,15.30
2014,05,16,03,38,15.30
2014,05,16,03,39,15.30
2014,05,16,03,40,15.30
2014,05,16,03,41,15.30
2014,05,16,03,42,15.30
2014,05,16,03,43,15.30
2014,05,16,03,44,15.30
2014,05,16,03,45,15.30
2014,05,16,03,46,15.30
2014,05,16,03,47,15.20
2014,05,16,03,48,15.20
2014,05,16,03,49,15.20
2014,05,16,03,50,15.20
2014,05,16,03,51,15.20
2014,05,16,03,52,15.20
2014,05,16,03,53,15.20
2014,05,16,03,54,15.10
2014,05,16,03,55,15.10
2014,05,16,03,56,15.10
2014,05,16,03,57,15.10
2014,05,16,03,58,15.00
2014,05,16,03,59,15.10
2014,05,16,04,00,15.10
2014,05,16,04,01,15.10
2014,05,16,04,02,15.10
2014,05,16,04,03,15.10
2014,05,16,04,04,15.00
2014,05,16,04,05,15.00
2014,05,16,04,06,15.00
2014,05,16,04,07,15.00
2014,05,16,04,08,15.00
2014,05,16,04,09,15.00
2014,05,16,04,10,15.00
2014,05,16,04,11,15.00
2014,05,16,04,12,15.00
2014,05,16,04,13,15.00
2014,05,16,04,14,15.00
2014,05,16,04,15,15.00
2014,05,16,04,16,15.00
2014,05,16,04,17,15.00
2014,05,16,04,18,15.00
2014,05,16,04,19,15.00
2014,05,16,04,20,15.00
2014,05,16,04,21,15.00
2014,05,16,04,22,15.00
2014,05,16,04,23,15.00
2014,05,16,04,24,15.00
2014,05,16,04,25,15.00
2014,05,16,04,26,15.00
2014,05,16,04,27,15.00
2014,05,16,04,28,15.00
2014,05,16,04,29,15.00
2014,05,16,04,30,15.00
2014,05,16,04,31,15.00
2014,05,16,04,32,15.00
2014,05,16,04,33,15.00
2014,05,16,04,34,15.00
2014,05,16,04,35,15.00
2014,05,16,04,36,15.00
2014,05,16,04,37,15.00
2014,05,16,04,38,15.00
2014,05,16,04,39,15.00
2014,05,16,04,40,15.00
2014,05,16,04,41,15.00
2014,05,16,04,42,15.00
2014,05,16,04,43,15.00
2014,05,16,04,44,15.00
2014,05,16,04,45,15.00
2014,05,16,04,46,14.90
2014,05,16,04,47,14.90
2014,05,16,04,48,14.90
2014,05,16,04,49,14.90
2014,05,16,04,50,14.90
2014,05,16,04,51,14.90
2014,05,16,04,52,14.90
2014,05,16,04,53,14.90
2014,05,16,04,54,14.90
2014,05,16,04,55,14.90
2014,05,16,04,56,14.90
2014,05,16,04,57,14.90
2014,05,16,04,58,15.00
2014,05,16,04,59,15.00
2014,05,16,05,00,15.00
2014,05,16,05,01,15.00
2014,05,16,05,02,15.00
2014,05,16,05,03,15.00
2014,05,16,05,04,15.00
2014,05,16,05,05,15.00
2014,05,16,05,06,15.00
2014,05,16,05,07,15.00
2014,05,16,05,08,15.00
2014,05,16,05,09,15.00
2014,05,16,05,10,15.00
2014,05,16,05,11,15.00
2014,05,16,05,12,15.00
2014,05,16,05,13,15.00
2014,05,16,05,14,15.00
2014,05,16,05,15,14.90
2014,05,16,05,16,15.00
2014,05,16,05,17,15.00
2014,05,16,05,18,15.00
2014,05,16,05,19,15.00
2014,05,16,05,20,15.00
2014,05,16,05,21,15.00
2014,05,16,05,22,15.00
2014,05,16,05,23,15.00
2014,05,16,05,24,14.90
2014,05,16,05,25,14.90
2014,05,16,05,26,14.90
2014,05,16,05,27,14.90
2014,05,16,05,28,15.00
2014,05,16,05,29,15.00
2014,05,16,05,30,15.00
2014,05,16,05,31,15.00
2014,05,16,05,32,15.00
2014,05,16,05,33,15.00
2014,05,16,05,34,15.00
2014,05,16,05,35,15.00
2014,05,16,05,36,15.00
2014,05,16,05,37,15.00
2014,05,16,05,38,15.00
2014,05,16,05,39,15.00
2014,05,16,05,40,15.00
2014,05,16,05,41,15.00
2014,05,16,05,42,15.00
2014,05,16,05,43,15.00
2014,05,16,05,44,15.00
2014,05,16,05,45,15.00
2014,05,16,05,46,14.90
2014,05,16,05,47,14.90
2014,05,16,05,48,14.90
2014,05,16,05,49,14.90
2014,05,16,05,50,14.80
2014,05,16,05,51,14.80
2014,05,16,05,52,14.80
2014,05,16,05,53,14.80
2014,05,16,05,54,14.80
2014,05,16,05,55,14.80
2014,05,16,05,56,14.80
2014,05,16,05,57,14.80
2014,05,16,05,58,14.80
2014,05,16,05,59,14.80
2014,05,16,06,00,14.80
2014,05,16,06,01,14.80
2014,05,16,06,02,14.80
2014,05,16,06,03,14.80
2014,05,16,06,04,14.80
2014,05,16,06,05,14.80
2014,05,16,06,06,14.80
2014,05,16,06,07,14.80
2014,05,16,06,08,14.80
2014,05,16,06,09,14.80
2014,05,16,06,10,14.80
2014,05,16,06,11,14.80
2014,05,16,06,12,14.80
2014,05,16,06,13,14.80
2014,05,16,06,14,14.80
2014,05,16,06,15,14.80
2014,05,16,06,16,14.80
2014,05,16,06,17,14.80
2014,05,16,06,18,14.80
2014,05,16,06,19,14.80
2014,05,16,06,20,14.80
2014,05,16,06,21,14.80
2014,05,16,06,22,14.90
2014,05,16,06,23,14.90
2014,05,16,06,24,14.90
2014,05,16,06,25,14.90
2014,05,16,06,26,14.90
2014,05,16,06,27,14.90
2014,05,16,06,28,14.90
2014,05,16,06,29,14.90
2014,05,16,06,30,14.80
2014,05,16,06,31,14.80
2014,05,16,06,32,14.80
2014,05,16,06,33,14.80
2014,05,16,06,34,14.80
2014,05,16,06,35,14.80
2014,05,16,06,36,14.80
2014,05,16,06,37,14.80
2014,05,16,06,38,14.80
2014,05,16,06,39,14.80
2014,05,16,06,40,14.80
2014,05,16,06,41,14.80
2014,05,16,06,42,14.80
2014,05,16,06,43,14.80
2014,05,16,06,44,14.80
2014,05,16,06,45,14.80
2014,05,16,06,46,14.80
2014,05,16,06,47,14.80
2014,05,16,06,48,14.90
2014,05,16,06,49,14.90
2014,05,16,06,50,14.90
2014,05,16,06,51,14.90
2014,05,16,06,52,14.90
2014,05,16,06,53,15.00
2014,05,16,06,54,15.00
2014,05,16,06,55,15.00
2014,05,16,06,56,15.00
2014,05,16,06,57,15.00
2014,05,16,06,58,15.00
2014,05,16,06,59,15.00
2014,05,16,07,00,15.00
2014,05,16,07,01,15.00
2014,05,16,07,02,15.00
2014,05,16,07,03,15.00
2014,05,16,07,04,15.10
2014,05,16,07,05,15.10
2014,05,16,07,06,15.10
2014,05,16,07,07,15.20
2014,05,16,07,08,15.20
2014,05,16,07,09,15.20
2014,05,16,07,10,15.20
2014,05,16,21,17,16.20
2014,05,16,21,18,16.20
2014,05,16,21,19,16.20
2014,05,16,21,20,16.20
2014,05,16,21,21,16.20
2014,05,16,21,22,16.20
2014,05,16,21,23,16.20
2014,05,16,21,24,16.20
2014,05,16,21,25,16.20
2014,05,16,21,26,16.20
2014,05,16,21,27,16.20
2014,05,16,21,28,16.10
2014,05,16,21,29,16.10
2014,05,16,21,30,16.10
2014,05,16,21,31,16.10
2014,05,16,21,32,16.10
2014,05,16,21,33,16.10
2014,05,16,21,34,16.10
2014,05,16,21,35,16.10
2014,05,16,21,36,16.10
2014,05,16,21,37,16.10
2014,05,16,21,38,16.10
2014,05,16,21,39,16.10
2014,05,16,21,40,16.10
2014,05,16,21,41,16.10
2014,05,16,21,42,16.10
2014,05,16,21,43,16.10
2014,05,16,21,44,16.10
2014,05,16,21,45,16.10
2014,05,16,21,46,16.10
2014,05,16,21,47,16.10
2014,05,16,21,48,16.10
2014,05,16,21,49,16.10
2014,05,16,21,50,16.10
2014,05,16,21,51,16.10
2014,05,16,21,52,16.10
2014,05,16,21,53,16.10
2014,05,16,21,54,16.10
2014,05,16,21,55,16.10
2014,05,16,21,56,16.00
2014,05,16,21,57,16.00
2014,05,16,21,58,16.00
2014,05,16,21,59,16.00
2014,05,16,22,00,16.00
2014,05,16,22,01,16.00
2014,05,16,22,02,16.00
2014,05,16,22,03,16.00
2014,05,16,22,04,16.00
2014,05,16,22,05,15.90
2014,05,16,22,06,15.90
2014,05,16,22,07,15.90
2014,05,16,22,08,15.90
2014,05,16,22,09,15.90
2014,05,16,22,10,15.90
2014,05,16,22,11,15.90
2014,05,16,22,12,15.90
2014,05,16,22,13,15.90
2014,05,16,22,14,15.90
2014,05,16,22,15,15.80
2014,05,16,22,16,15.80
2014,05,16,22,17,15.80
2014,05,16,22,18,15.80
2014,05,16,22,19,15.80
2014,05,16,22,20,15.80
2014,05,16,22,21,15.80
2014,05,16,22,22,15.80
2014,05,16,22,23,15.80
2014,05,16,22,24,15.80
2014,05,16,22,25,15.80
2014,05,16,22,26,15.80
2014,05,16,22,27,15.70
2014,05,16,22,28,15.70
2014,05,16,22,29,15.70
2014,05,16,22,30,15.70
2014,05,16,22,31,15.70
2014,05,16,22,32,15.60
2014,05,16,22,33,15.60
2014,05,16,22,34,15.60
2014,05,16,22,35,15.60
2014,05,16,22,36,15.60
2014,05,16,22,37,15.60
2014,05,16,22,38,15.60
2014,05,16,22,39,15.60
2014,05,16,22,40,15.60
2014,05,16,22,41,15.60
2014,05,16,22,42,15.50
2014,05,16,22,43,15.50
2014,05,16,22,44,15.50
2014,05,16,22,45,15.50
2014,05,16,22,46,15.40
2014,05,16,22,47,15.40
2014,05,16,22,48,15.40
2014,05,16,22,49,15.40
2014,05,16,22,50,15.40
2014,05,16,22,51,15.40
2014,05,16,22,52,15.40
2014,05,16,22,53,15.40
2014,05,16,22,54,15.40
2014,05,16,22,55,15.40
2014,05,16,22,56,15.40
2014,05,16,22,57,15.40
2014,05,16,22,58,15.40
2014,05,16,22,59,15.40
2014,05,16,23,00,15.40
2014,05,16,23,01,15.40
2014,05,16,23,02,15.40
2014,05,16,23,03,15.40
2014,05,16,23,04,15.40
2014,05,16,23,05,15.40
2014,05,16,23,06,15.30
2014,05,16,23,07,15.40
2014,05,16,23,08,15.40
2014,05,16,23,09,15.40
2014,05,16,23,10,15.30
2014,05,16,23,11,15.30
2014,05,16,23,12,15.30
2014,05,16,23,13,15.30
2014,05,16,23,14,15.30
2014,05,16,23,15,15.30
2014,05,16,23,16,15.30
2014,05,16,23,17,15.30
2014,05,16,23,18,15.30
2014,05,16,23,19,15.30
2014,05,16,23,20,15.30
2014,05,16,23,21,15.30
2014,05,16,23,22,15.30
2014,05,16,23,23,15.30
2014,05,16,23,24,15.30
2014,05,16,23,25,15.30
2014,05,16,23,26,15.30
2014,05,16,23,27,15.30
2014,05,16,23,28,15.30
2014,05,16,23,29,15.30
2014,05,16,23,30,15.30
2014,05,16,23,31,15.30
2014,05,16,23,32,15.30
2014,05,16,23,33,15.30
2014,05,16,23,34,15.30
2014,05,16,23,35,15.30
2014,05,16,23,36,15.30
2014,05,16,23,37,15.30
2014,05,16,23,38,15.30
2014,05,16,23,39,15.30
2014,05,16,23,40,15.30
2014,05,16,23,41,15.30
2014,05,16,23,42,15.30
2014,05,16,23,43,15.30
2014,05,16,23,44,15.30
2014,05,16,23,45,15.30
2014,05,16,23,46,15.30
2014,05,16,23,47,15.30
2014,05,16,23,48,15.30
2014,05,16,23,49,15.20
2014,05,16,23,50,15.20
2014,05,16,23,51,15.20
2014,05,16,23,52,15.20
2014,05,16,23,53,15.20
2014,05,16,23,54,15.20
2014,05,16,23,55,15.20
2014,05,16,23,56,15.20
2014,05,16,23,57,15.20
2014,05,16,23,58,15.20
2014,05,16,23,59,15.20
